QPF
0.02 0.03 0.03 0.04 0.04 0.04 0.03 0.03 0.03 0.03 0.02 0.02 0.02 0.01 0.01 0.01 0.01 0.01 0.01 0.01 0.00 0.00 0.01 0.01 0.01 0.02 0.02 0.01 0.02 0.02 0.02 0.01 0.01 0.01 0.01 0.01 0.02 0.03
0.03 0.03 0.03 0.03 0.03 0.03 0.03 0.03 0.03 0.03 0.02 0.01 0.02 0.01 0.01 0.01 0.01 0.01 0.01 0.01 0.01 0.01 0.00 0.01 0.01 0.02 0.02 0.02 0.02 0.02 0.02 0.01 0.01 0.01 0.01 0.01 0.01 0.01
0.03 0.03 0.02 0.03 0.03 0.03 0.03 0.03 0.03 0.03 0.02 0.01 0.02 0.01 0.02 0.02 0.02 0.03 0.02 0.02 0.01 0.01 0.01 0.01 0.01 0.01 0.02 0.02 0.02 0.02 0.02 0.01 0.01 0.01 0.01 0.01 0.01 0.01
0.03 0.03 0.03 0.03 0.03 0.03 0.03 0.04 0.05 0.05 0.05 0.04 0.03 0.02 0.02 0.03 0.03 0.03 0.02 0.02 0.01 0.01 0.01 0.01 0.01 0.01 0.02 0.02 0.02 0.02 0.02 0.01 0.01 0.01 0.01 0.01 0.01 0.01
0.02 0.02 0.03 0.03 0.03 0.03 0.04 0.05 0.05 0.05 0.05 0.05 0.03 0.03 0.03 0.03 0.03 0.02 0.02 0.03 0.02 0.01 0.01 0.01 0.01 0.02 0.03 0.03 0.03 0.03 0.02 0.01 0.01 0.01 0.01 0.01 0.01 0.01
0.03 0.03 0.03 0.04 0.04 0.05 0.05 0.05 0.04 0.05 0.04 0.04 0.04 0.04 0.03 0.03 0.03 0.04 0.04 0.04 0.03 0.02 0.01 0.01 0.02 0.03 0.03 0.03 0.03 0.03 0.02 0.01 0.01 0.01 0.01 0.01 0.01 0.02
0.03 0.03 0.03 0.03 0.04 0.05 0.04 0.04 0.03 0.04 0.03 0.03 0.04 0.04 0.03 0.03 0.04 0.04 0.04 0.03 0.03 0.03 0.03 0.03 0.03 0.04 0.04 0.04 0.03 0.02 0.02 0.02 0.01 0.01 0.01 0.01 0.01 0.01
0.02 0.02 0.02 0.02 0.02 0.02 0.02 0.02 0.02 0.02 0.02 0.02 0.03 0.04 0.04 0.04 0.05 0.05 0.04 0.03 0.03 0.04 0.04 0.03 0.03 0.04 0.04 0.04 0.03 0.03 0.02 0.02 0.02 0.02 0.02 0.02 0.02 0.01
0.02 0.02 0.01 0.01 0.01 0.01 0.01 0.01 0.01 0.02 0.02 0.02 0.03 0.04 0.04 0.05 0.05 0.05 0.05 0.04 0.04 0.04 0.03 0.02 0.03 0.03 0.03 0.03 0.02 0.02 0.03 0.03 0.03 0.03 0.03 0.02 0.02 0.01
0.01 0.01 0.01 0.01 0.01 0.02 0.02 0.01 0.02 0.02 0.02 0.02 0.02 0.02 0.03 0.03 0.03 0.04 0.04 0.04 0.03 0.04 0.04 0.03 0.03 0.03 0.04 0.05 0.04 0.03 0.03 0.04 0.04 0.03 0.03 0.03 0.02 0.02
0.01 0.01 0.01 0.01 0.02 0.02 0.02 0.02 0.01 0.01 0.02 0.02 0.02 0.02 0.03 0.03 0.02 0.03 0.04 0.04 0.03 0.03 0.04 0.04 0.04 0.04 0.04 0.04 0.04 0.04 0.05 0.05 0.04 0.03 0.04 0.03 0.03 0.03
0.01 0.01 0.01 0.01 0.01 0.01 0.01 0.01 0.01 0.01 0.01 0.01 0.01 0.01 0.01 0.02 0.02 0.02 0.04 0.05 0.03 0.03 0.04 0.04 0.04 0.04 0.04 0.05 0.04 0.05 0.05 0.06 0.05 0.04 0.04 0.05 0.06 0.05
0.02 0.01 0.01 0.01 0.01 0.01 0.01 0.01 0.01 0.01 0.01 0.01 0.00 0.01 0.01 0.01 0.02 0.02 0.03 0.04 0.04 0.03 0.03 0.03 0.03 0.03 0.04 0.05 0.06 0.05 0.05 0.06 0.07 0.07 0.06 0.07 0.08 0.06
0.02 0.03 0.02 0.01 0.01 0.01 0.01 0.01 0.01 0.01 0.01 0.01 0.00 0.00 0.01 0.01 0.01 0.02 0.02 0.03 0.04 0.03 0.03 0.04 0.05 0.04 0.05 0.05 0.06 0.06 0.06 0.07 0.08 0.09 0.08 0.10 0.10 0.10
0.03 0.04 0.03 0.02 0.02 0.02 0.01 0.01 0.01 0.02 0.01 0.01 0.01 0.01 0.01 0.01 0.01 0.02 0.02 0.04 0.03 0.02 0.03 0.04 0.05 0.06 0.06 0.06 0.06 0.06 0.07 0.07 0.10 0.13 0.13 0.13 0.12 0.11
0.04 0.05 0.05 0.04 0.03 0.03 0.03 0.02 0.02 0.02 0.01 0.01 0.01 0.01 0.01 0.01 0.01 0.02 0.04 0.05 0.04 0.03 0.03 0.05 0.05 0.07 0.08 0.07 0.07 0.07 0.07 0.08 0.09 0.12 0.13 0.13 0.12 0.12
0.04 0.04 0.04 0.03 0.03 0.02 0.02 0.02 0.02 0.02 0.02 0.02 0.02 0.01 0.01 0.01 0.01 0.02 0.05 0.05 0.04 0.04 0.04 0.05 0.05 0.07 0.07 0.07 0.07 0.07 0.09 0.10 0.10 0.12 0.13 0.13 0.13 0.12
0.02 0.02 0.02 0.02 0.01 0.02 0.02 0.02 0.02 0.02 0.02 0.02 0.03 0.02 0.01 0.01 0.01 0.02 0.04 0.04 0.03 0.03 0.03 0.04 0.05 0.07 0.06 0.06 0.06 0.06 0.07 0.08 0.10 0.12 0.13 0.13 0.12 0.12
0.01 0.01 0.01 0.01 0.01 0.01 0.01 0.01 0.01 0.01 0.02 0.02 0.03 0.02 0.02 0.02 0.02 0.03 0.04 0.03 0.02 0.02 0.03 0.04 0.05 0.06 0.07 0.08 0.09 0.09 0.10 0.10 0.09 0.09 0.11 0.12 0.12 0.13
0.01 0.01 0.01 0.01 0.01 0.01 0.01 0.01 0.02 0.01 0.01 0.01 0.01 0.02 0.03 0.04 0.04 0.03 0.03 0.03 0.03 0.03 0.03 0.03 0.03 0.04 0.05 0.05 0.06 0.07 0.09 0.10 0.08 0.08 0.08 0.10 0.09 0.09
0.00 0.01 0.01 0.00 0.00 0.00 0.00 0.01 0.01 0.01 0.02 0.02 0.02 0.02 0.03 0.04 0.04 0.03 0.03 0.03 0.03 0.03 0.03 0.03 0.02 0.02 0.03 0.04 0.05 0.06 0.07 0.08 0.08 0.06 0.06 0.08 0.09 0.09
0.00 0.01 0.00 0.00 0.00 0.00 0.00 0.00 0.01 0.01 0.01 0.01 0.01 0.02 0.02 0.03 0.03 0.02 0.02 0.03 0.02 0.02 0.02 0.02 0.02 0.02 0.03 0.05 0.06 0.06 0.06 0.06 0.05 0.05 0.06 0.07 0.07 0.09
0.01 0.01 0.00 0.00 0.01 0.01 0.01 0.01 0.01 0.01 0.01 0.01 0.01 0.01 0.01 0.02 0.02 0.02 0.02 0.02 0.02 0.01 0.01 0.01 0.01 0.02 0.03 0.04 0.05 0.06 0.06 0.06 0.07 0.07 0.08 0.07 0.06 0.06
MSLP
1010.62 1010.41 1010.19 1009.96 1009.69 1009.33 1008.88 1008.33 1007.69 1006.99 1006.27 1005.58 1004.95 1004.43 1004.03 1003.75 1003.58 1003.49 1003.45 1003.45 1003.45 1003.45 1003.45 1003.47 1003.52 1003.65 1003.85 1004.15 1004.56 1005.05 1005.63 1006.26 1006.93 1007.63 1008.34 1009.06 1009.80 1010.53
1010.29 1010.02 1009.77 1009.52 1009.22 1008.86 1008.42 1007.89 1007.27 1006.59 1005.90 1005.21 1004.59 1004.06 1003.64 1003.33 1003.13 1003.01 1002.94 1002.91 1002.90 1002.88 1002.88 1002.90 1002.97 1003.10 1003.32 1003.64 1004.07 1004.59 1005.19 1005.86 1006.58 1007.33 1008.10 1008.88 1009.66 1010.44
1009.98 1009.65 1009.34 1009.04 1008.71 1008.33 1007.89 1007.37 1006.78 1006.14 1005.48 1004.84 1004.24 1003.72 1003.30 1002.99 1002.77 1002.63 1002.55 1002.51 1002.50 1002.49 1002.50 1002.55 1002.64 1002.79 1003.04 1003.38 1003.82 1004.36 1004.98 1005.67 1006.41 1007.18 1007.97 1008.78 1009.58 1010.37
1009.78 1009.38 1008.99 1008.62 1008.24 1007.84 1007.39 1006.89 1006.33 1005.73 1005.11 1004.51 1003.94 1003.45 1003.05 1002.74 1002.53 1002.40 1002.32 1002.30 1002.30 1002.33 1002.37 1002.46 1002.58 1002.77 1003.04 1003.40 1003.86 1004.40 1005.02 1005.70 1006.43 1007.19 1007.97 1008.76 1009.55 1010.33
1009.72 1009.23 1008.77 1008.33 1007.90 1007.46 1007.00 1006.51 1005.98 1005.42 1004.84 1004.28 1003.75 1003.29 1002.91 1002.62 1002.43 1002.31 1002.27 1002.27 1002.32 1002.40 1002.50 1002.64 1002.82 1003.05 1003.35 1003.72 1004.18 1004.70 1005.30 1005.95 1006.64 1007.36 1008.10 1008.85 1009.60 1010.33
1009.74 1009.19 1008.66 1008.17 1007.69 1007.23 1006.76 1006.28 1005.77 1005.23 1004.70 1004.17 1003.67 1003.24 1002.88 1002.62 1002.45 1002.36 1002.36 1002.42 1002.53 1002.67 1002.85 1003.05 1003.29 1003.56 1003.89 1004.27 1004.71 1005.21 1005.76 1006.36 1007.00 1007.66 1008.34 1009.03 1009.71 1010.39
1009.79 1009.19 1008.62 1008.09 1007.59 1007.12 1006.65 1006.18 1005.69 1005.18 1004.67 1004.17 1003.70 1003.28 1002.95 1002.70 1002.56 1002.52 1002.56 1002.68 1002.86 1003.07 1003.32 1003.59 1003.88 1004.20 1004.54 1004.93 1005.35 1005.81 1006.32 1006.86 1007.43 1008.03 1008.64 1009.26 1009.87 1010.49
1009.79 1009.16 1008.58 1008.04 1007.55 1007.08 1006.63 1006.18 1005.71 1005.23 1004.74 1004.26 1003.80 1003.40 1003.08 1002.85 1002.73 1002.71 1002.80 1002.97 1003.21 1003.50 1003.81 1004.14 1004.47 1004.82 1005.18 1005.55 1005.95 1006.37 1006.83 1007.32 1007.84 1008.37 1008.92 1009.48 1010.04 1010.59
1009.68 1009.06 1008.49 1007.98 1007.51 1007.07 1006.65 1006.23 1005.80 1005.34 1004.87 1004.40 1003.95 1003.55 1003.23 1003.01 1002.90 1002.91 1003.03 1003.24 1003.52 1003.85 1004.20 1004.57 1004.93 1005.29 1005.65 1006.01 1006.38 1006.77 1007.19 1007.64 1008.11 1008.61 1009.11 1009.63 1010.14 1010.64
1009.47 1008.88 1008.34 1007.87 1007.45 1007.06 1006.68 1006.30 1005.90 1005.47 1005.02 1004.56 1004.12 1003.72 1003.40 1003.18 1003.07 1003.08 1003.20 1003.42 1003.72 1004.06 1004.43 1004.80 1005.17 1005.52 1005.86 1006.20 1006.54 1006.91 1007.31 1007.73 1008.18 1008.65 1009.13 1009.61 1010.09 1010.56
1009.22 1008.66 1008.18 1007.75 1007.38 1007.04 1006.71 1006.37 1006.01 1005.61 1005.18 1004.73 1004.29 1003.90 1003.57 1003.33 1003.21 1003.21 1003.32 1003.53 1003.81 1004.13 1004.48 1004.82 1005.16 1005.47 1005.78 1006.09 1006.41 1006.76 1007.13 1007.54 1007.98 1008.44 1008.91 1009.38 1009.84 1010.27
1009.01 1008.49 1008.04 1007.66 1007.33 1007.03 1006.74 1006.44 1006.11 1005.74 1005.33 1004.90 1004.46 1004.07 1003.74 1003.49 1003.35 1003.32 1003.40 1003.57 1003.80 1004.08 1004.37 1004.66 1004.93 1005.20 1005.46 1005.72 1006.00 1006.32 1006.68 1007.08 1007.52 1007.97 1008.44 1008.90 1009.33 1009.73
1008.92 1008.43 1008.00 1007.64 1007.33 1007.06 1006.79 1006.51 1006.20 1005.85 1005.46 1005.04 1004.62 1004.23 1003.90 1003.64 1003.48 1003.42 1003.45 1003.57 1003.74 1003.94 1004.15 1004.36 1004.56 1004.75 1004.94 1005.14 1005.38 1005.67 1006.00 1006.38 1006.81 1007.25 1007.71 1008.15 1008.56 1008.92
1008.97 1008.48 1008.06 1007.70 1007.39 1007.11 1006.85 1006.57 1006.27 1005.93 1005.56 1005.16 1004.76 1004.38 1004.05 1003.78 1003.60 1003.51 1003.49 1003.54 1003.64 1003.75 1003.87 1003.98 1004.09 1004.19 1004.30 1004.44 1004.62 1004.85 1005.14 1005.50 1005.89 1006.32 1006.74 1007.15 1007.53 1007.86
1009.13 1008.63 1008.19 1007.81 1007.47 1007.17 1006.89 1006.60 1006.29 1005.96 1005.60 1005.22 1004.83 1004.47 1004.15 1003.89 1003.69 1003.57 1003.50 1003.49 1003.50 1003.53 1003.55 1003.57 1003.57 1003.57 1003.59 1003.65 1003.76 1003.93 1004.17 1004.47 1004.82 1005.20 1005.59 1005.96 1006.29 1006.58
1009.31 1008.79 1008.32 1007.90 1007.53 1007.19 1006.87 1006.57 1006.25 1005.91 1005.55 1005.19 1004.82 1004.48 1004.17 1003.91 1003.70 1003.55 1003.45 1003.37 1003.32 1003.26 1003.19 1003.10 1003.01 1002.92 1002.84 1002.81 1002.84 1002.93 1003.10 1003.34 1003.62 1003.95 1004.28 1004.60 1004.90 1005.15
1009.41 1008.87 1008.36 1007.91 1007.50 1007.12 1006.78 1006.45 1006.11 1005.77 1005.42 1005.07 1004.72 1004.39 1004.09 1003.83 1003.61 1003.43 1003.29 1003.16 1003.03 1002.90 1002.75 1002.58 1002.39 1002.21 1002.05 1001.93 1001.87 1001.89 1001.97 1002.13 1002.35 1002.60 1002.87 1003.15 1003.40 1003.63
1009.34 1008.78 1008.26 1007.79 1007.36 1006.96 1006.60 1006.25 1005.91 1005.56 1005.22 1004.87 1004.52 1004.20 1003.89 1003.62 1003.39 1003.18 1002.99 1002.81 1002.63 1002.43 1002.20 1001.96 1001.70 1001.44 1001.21 1001.01 1000.87 1000.80 1000.81 1000.88 1001.02 1001.21 1001.42 1001.65 1001.88 1002.10
1009.09 1008.54 1008.03 1007.56 1007.14 1006.75 1006.38 1006.04 1005.69 1005.35 1005.00 1004.64 1004.29 1003.95 1003.63 1003.34 1003.06 1002.82 1002.58 1002.35 1002.11 1001.85 1001.57 1001.26 1000.95 1000.63 1000.33 1000.07 999.86 999.72 999.65 999.65 999.71 999.83 999.99 1000.18 1000.40 1000.63
1008.70 1008.19 1007.72 1007.29 1006.90 1006.55 1006.21 1005.88 1005.55 1005.21 1004.85 1004.48 1004.10 1003.73 1003.37 1003.03 1002.71 1002.40 1002.11 1001.82 1001.53 1001.22 1000.89 1000.55 1000.19 999.83 999.49 999.18 998.91 998.70 998.56 998.49 998.49 998.55 998.66 998.82 999.02 999.26
1008.27 1007.83 1007.43 1007.08 1006.76 1006.47 1006.18 1005.89 1005.57 1005.23 1004.86 1004.46 1004.05 1003.62 1003.20 1002.79 1002.40 1002.03 1001.67 1001.33 1000.98 1000.63 1000.28 999.90 999.52 999.14 998.77 998.42 998.11 997.86 997.66 997.52 997.45 997.44 997.50 997.63 997.81 998.06
1007.92 1007.58 1007.28 1007.02 1006.80 1006.58 1006.36 1006.11 1005.82 1005.49 1005.10 1004.66 1004.19 1003.70 1003.20 1002.71 1002.24 1001.80 1001.38 1000.98 1000.59 1000.21 999.83 999.45 999.06 998.68 998.29 997.93 997.58 997.28 997.03 996.83 996.69 996.62 996.61 996.68 996.83 997.05
1007.73 1007.49 1007.31 1007.18 1007.06 1006.94 1006.79 1006.59 1006.33 1005.99 1005.58 1005.10 1004.57 1004.01 1003.43 1002.86 1002.31 1001.80 1001.32 1000.87 1000.46 1000.06 999.68 999.30 998.92 998.54 998.16 997.78 997.41 997.07 996.76 996.50 996.28 996.12 996.04 996.03 996.11 996.28
Thickness
5655 5653 5651 5651 5649 5647 5645 5642 5638 5637 5640 5642 5642 5641 5638 5635 5634 5633 5633 5632 5630 5628 5627 5627 5627 5628 5628 5629 5630 5631 5631 5632 5632 5633 5633 5634 5636 5637
5649 5647 5644 5645 5644 5642 5639 5637 5635 5631 5631 5635 5634 5635 5630 5628 5627 5626 5626 5625 5623 5622 5622 5621 5621 5622 5622 5623 5624 5624 5625 5626 5626 5627 5627 5628 5630 5631
5645 5643 5641 5638 5637 5636 5634 5633 5630 5627 5623 5627 5628 5627 5623 5620 5620 5619 5619 5619 5620 5618 5617 5616 5615 5616 5616 5616 5617 5618 5618 5619 5619 5620 5621 5622 5623 5625
5641 5638 5637 5635 5632 5630 5627 5626 5624 5621 5618 5616 5618 5618 5616 5615 5613 5611 5613 5614 5613 5613 5611 5610 5610 5610 5610 5610 5611 5611 5611 5611 5612 5613 5614 5616 5617 5618
5637 5634 5632 5630 5626 5625 5621 5620 5617 5616 5612 5609 5610 5611 5610 5609 5605 5605 5605 5604 5606 5608 5606 5605 5604 5604 5604 5604 5604 5604 5604 5605 5606 5606 5606 5608 5609 5610
5633 5631 5628 5625 5622 5618 5616 5613 5610 5607 5605 5604 5604 5604 5602 5601 5597 5596 5597 5597 5598 5601 5601 5601 5600 5599 5599 5598 5597 5597 5597 5597 5598 5598 5599 5599 5600 5602
5630 5627 5625 5620 5615 5611 5609 5606 5602 5600 5599 5598 5597 5596 5594 5591 5589 5589 5589 5589 5591 5591 5593 5595 5595 5595 5595 5593 5591 5591 5590 5589 5589 5590 5590 5591 5592 5593
5626 5623 5621 5618 5611 5606 5601 5598 5594 5592 5591 5589 5589 5586 5583 5582 5580 5579 5579 5580 5581 5583 5582 5585 5587 5588 5588 5589 5586 5584 5582 5581 5581 5581 5582 5583 5584 5585
5621 5619 5617 5615 5608 5604 5599 5594 5591 5586 5581 5580 5579 5577 5575 5575 5571 5571 5570 5569 5570 5572 5572 5575 5578 5579 5581 5581 5578 5575 5573 5572 5571 5572 5572 5573 5574 5575
5619 5615 5611 5608 5603 5597 5595 5593 5589 5585 5579 5576 5573 5570 5568 5565 5562 5561 5561 5562 5563 5565 5564 5565 5569 5570 5572 5571 5568 5566 5565 5564 5563 5563 5563 5564 5565 5566
5617 5613 5608 5603 5595 5589 5589 5588 5585 5580 5576 5571 5566 5563 5560 5557 5554 5555 5557 5557 5559 5560 5559 5557 5559 5560 5562 5562 5561 5558 5557 5556 5555 5555 5555 5555 5555 5556
5615 5611 5603 5597 5589 5584 5584 5582 5579 5576 5572 5570 5565 5561 5559 5555 5551 5549 5550 5550 5552 5552 5552 5548 5550 5550 5552 5555 5554 5552 5550 5549 5547 5547 5546 5546 5546 5548
5613 5609 5603 5591 5586 5581 5578 5577 5573 5568 5568 5567 5564 5562 5558 5555 5551 5548 5545 5543 5543 5544 5544 5541 5540 5541 5542 5546 5547 5546 5544 5543 5542 5541 5539 5538 5539 5540
5607 5604 5598 5588 5583 5579 5576 5571 5567 5564 5566 5564 5561 5558 5554 5551 5548 5545 5541 5538 5536 5536 5535 5533 5532 5532 5534 5536 5538 5538 5537 5536 5535 5534 5533 5532 5532 5532
5602 5595 5590 5585 5581 5579 5574 5569 5566 5565 5562 5559 5555 5553 5550 5546 5543 5541 5538 5536 5534 5533 5532 5529 5527 5528 5527 5528 5530 5530 5529 5529 5528 5528 5527 5527 5527 5528
5599 5594 5588 5584 5580 5576 5573 5571 5567 5562 5557 5554 5551 5549 5546 5543 5540 5539 5536 5534 5532 5532 5530 5526 5524 5523 5523 5523 5523 5524 5523 5522 5522 5521 5520 5521 5522 5523
5594 5594 5592 5588 5584 5579 5575 5570 5565 5560 5555 5550 5547 5544 5542 5539 5537 5535 5531 5530 5528 5528 5527 5525 5522 5520 5518 5517 5518 5517 5517 5517 5516 5515 5515 5516 5517 5517
5589 5591 5588 5584 5580 5576 5571 5567 5561 5557 5552 5548 5544 5540 5538 5535 5533 5532 5529 5527 5525 5524 5522 5521 5518 5517 5516 5515 5510 5511 5511 5510 5510 5510 5510 5512 5513 5513
5588 5588 5584 5579 5575 5571 5567 5562 5558 5553 5549 5545 5541 5538 5534 5532 5530 5529 5526 5523 5521 5520 5517 5516 5514 5511 5510 5510 5507 5502 5503 5503 5503 5504 5505 5506 5507 5507
5588 5584 5580 5576 5572 5568 5564 5559 5554 5550 5546 5542 5539 5535 5531 5529 5526 5524 5522 5518 5516 5515 5513 5512 5509 5505 5502 5501 5501 5499 5496 5497 5497 5498 5499 5500 5501 5501
5588 5583 5578 5574 5569 5564 5559 5555 5550 5546 5542 5539 5536 5531 5528 5525 5523 5520 5519 5513 5511 5511 5509 5507 5504 5498 5497 5496 5496 5496 5494 5491 5491 5491 5493 5495 5497 5498
5584 5580 5575 5570 5565 5561 5557 5552 5548 5544 5540 5537 5533 5529 5526 5523 5520 5517 5516 5514 5511 5509 5506 5505 5501 5499 5497 5494 5492 5491 5491 5490 5487 5486 5485 5486 5490 5492
5580 5576 5572 5567 5563 5558 5554 5550 5546 5543 5538 5535 5531 5528 5525 5521 5518 5516 5514 5512 5509 5505 5503 5501 5500 5497 5495 5492 5490 5488 5487 5487 5487 5487 5485 5482 5482 5483